GFSGL_prec_cloud_162.txt.gz
Cloud_Cover
5 5 5 5 5 4 5 5 5 5 5 5 5 5 48 75 40 32 94 39 84 99 100 100 100 80 100 100 100 100 100 100 100 100 98 100 100 100 100 98 61 100 100
42 7 5 5 5 5 5 2 4 5 5 5 12 5 74 99 100 87 92 99 100 100 100 100 100 100 96 100 100 100 100 100 100 100 100 90 100 100 100 100 100 100 72
0 0 4 5 5 5 9 5 7 64 90 5 0 0 1 85 100 67 100 99 100 100 100 100 100 100 100 100 100 100 100 100 100 100 100 99 100 100 100 100 100 100 100
4 1 4 5 5 45 61 100 50 16 1 0 0 0 68 9 100 100 75 100 100 99 100 100 100 100 100 100 100 100 100 100 100 100 100 100 100 100 100 100 100 100 100
5 44 89 96 99 98 72 6 0 0 0 3 5 5 5 56 100 100 100 100 100 100 100 100 100 100 100 100 100 100 100 100 100 100 100 100 100 100 100 100 100 100 100
52 36 87 18 5 4 5 5 5 5 5 5 5 5 5 5 18 92 100 100 100 100 100 100 100 100 100 100 100 100 100 100 100 100 100 100 60 100 100 100 100 100 100
100 92 42 5 5 5 5 5 5 5 5 5 5 5 5 5 22 65 99 100 100 100 100 100 100 100 100 100 100 100 100 100 100 100 100 100 100 99 100 100 100 100 100
2 3 5 5 5 5 5 5 5 5 5 5 5 5 5 5 74 82 60 67 69 88 90 100 100 100 100 100 100 100 100 100 100 100 100 100 100 100 90 100 100 100 100
5 5 5 5 5 5 5 5 5 13 5 5 5 5 5 5 30 88 90 5 5 7 73 100 100 100 100 100 100 99 91 91 100 100 100 99 94 100 100 100 100 100 100
5 5 5 5 6 5 5 27 64 70 7 13 5 5 5 7 8 74 87 75 35 69 98 92 72 85 93 58 91 97 84 27 83 100 100 98 96 98 100 100 100 100 100
5 5 5 5 69 8 71 88 88 67 90 91 76 67 70 64 84 100 100 100 100 100 98 95 98 100 99 88 97 100 100 83 73 99 100 100 100 100 100 100 100 100 100
4 5 5 5 23 5 51 24 47 67 96 99 100 99 100 98 99 99 100 100 100 100 98 100 100 100 99 100 100 100 100 100 100 100 100 100 100 100 100 100 100 100 100
5 5 5 6 5 5 5 5 5 5 23 55 74 96 76 18 95 85 100 100 100 100 100 100 99 100 100 43 70 99 100 100 100 100 100 100 100 100 100 100 100 100 100
12 63 33 2 5 5 4 5 9 5 7 70 74 72 5 6 67 41 43 70 90 84 100 62 98 89 55 49 5 18 99 100 100 100 100 100 100 100 100 100 100 100 100
100 100 100 51 71 98 85 29 69 5 17 54 81 92 74 97 54 100 100 100 100 98 100 82 98 94 70 56 50 68 91 100 100 100 100 100 100 100 100 100 100 100 100
100 100 96 79 74 98 100 100 7 5 5 5 11 86 60 96 100 100 100 100 76 29 5 78 100 100 100 100 100 99 100 100 100 100 100 100 100 100 100 100 100 100 100
100 100 66 80 100 100 64 6 5 0 0 0 5 6 60 77 100 100 100 97 5 2 5 5 8 90 100 100 100 100 100 100 100 100 100 100 100 100 100 100 100 100 100
100 100 100 96 58 11 5 5 5 5 5 4 1 5 5 82 100 62 70 7 3 5 5 5 5 27 64 94 100 100 100 100 100 100 100 100 100 100 100 100 100 100 100
92 37 5 5 5 5 5 5 4 5 3 5 5 2 1 89 100 5 5 5 5 5 5 13 5 6 84 65 100 100 100 100 100 100 100 100 100 100 100 100 100 100 100
5 5 5 5 5 2 2 5 3 5 5 5 5 5 18 100 46 5 5 5 5 5 50 72 26 69 72 71 97 100 100 100 100 100 100 100 100 100 100 100 100 100 100
5 4 4 5 5 5 5 5 5 5 5 5 5 5 90 100 5 34 63 8 5 12 76 86 73 100 100 100 100 100 100 100 100 100 100 100 100 100 100 100 100 100 100
44 30 6 5 5 5 5 5 5 5 5 5 5 5 60 5 5 5 10 17 5 5 61 98 78 80 100 100 100 100 100 100 100 100 100 100 100 100 100 100 100 100 100
92 6 5 5 5 5 5 5 5 5 5 5 5 5 5 5 5 5 5 5 14 5 5 69 71 10 89 100 100 100 100 100 100 100 100 100 100 100 100 100 100 100 100
97 78 5 5 5 5 5 5 5 5 5 5 5 5 5 5 15 5 5 5 5 5 5 5 10 5 6 67 100 100 100 100 100 100 100 100 100 100 100 100 100 100 100
100 98 6 5 5 5 5 5 5 5 5 5 5 5 5 31 10 8 5 5 5 11 18 5 5 5 5 21 46 85 100 100 100 100 100 100 100 100 100 100 100 100 100
100 94 8 5 5 5 5 5 5 5 5 5 6 5 13 6 15 13 5 9 20 8 5 5 5 5 5 5 5 24 100 100 100 100 100 100 100 100 100 100 100 100 100

GFSGL_prec_cloud_165.txt.gz
Cloud_Cover
21 17 5 5 5 5 5 5 5 5 5 5 5 5 5 5 1 5 32 13 46 75 73 39 26 33 91 74 92 100 100 100 100 98 98 97 96 100 98 100 100 100 100
5 20 5 8 23 19 7 5 5 5 5 40 10 5 5 5 0 0 2 17 8 8 55 100 29 87 100 100 100 91 97 100 100 100 55 100 100 90 96 93 100 100 100
5 38 97 87 81 43 23 6 6 8 6 17 21 6 5 5 5 7 27 14 5 5 5 5 98 100 85 100 100 100 100 100 96 99 100 100 100 100 99 99 100 100 100
18 10 16 19 5 5 5 17 63 86 48 5 5 5 5 5 5 5 5 5 5 5 5 50 97 100 100 100 100 100 100 100 91 100 100 100 100 100 100 98 100 100 99
4 1 0 4 5 13 50 20 5 5 24 55 18 81 11 0 5 5 5 5 5 5 5 5 23 99 100 100 100 100 100 100 100 100 100 100 100 77 100 100 100 100 97
5 5 6 6 5 6 19 11 100 100 95 47 1 3 5 5 5 20 44 5 5 5 5 5 5 5 5 48 100 100 100 100 100 100 100 100 100 100 100 100 100 100 100
97 81 16 33 86 100 89 49 4 3 5 5 3 5 5 5 19 79 67 5 5 5 5 5 5 5 5 5 14 98 100 100 100 100 100 100 92 98 100 100 100 100 100
100 100 99 70 26 7 5 5 5 5 5 5 5 5 5 5 53 76 77 5 5 5 5 5 5 5 5 53 29 33 39 100 100 100 95 90 40 26 100 92 100 100 100
24 24 6 5 5 5 5 5 5 5 5 5 5 5 5 5 40 83 48 13 5 5 5 5 5 5 52 95 94 97 82 72 69 74 62 6 20 100 93 99 100 100 100
4 3 3 5 5 5 5 5 6 5 5 8 5 5 22 65 37 96 94 97 84 87 49 5 17 87 100 100 100 100 97 95 100 95 95 100 95 72 98 100 100 100 100
3 0 0 5 5 5 5 5 5 5 5 11 11 5 5 5 5 47 70 13 19 55 53 52 5 85 98 100 100 100 100 99 78 94 98 93 100 100 100 97 100 100 100
5 4 20 6 5 5 5 5 5 27 16 5 5 5 22 17 5 52 74 96 98 91 74 18 32 76 100 100 100 100 100 63 92 100 100 93 81 36 94 100 100 100 100
52 65 59 99 91 95 5 5 43 89 77 11 55 13 13 5 5 61 43 100 96 96 80 6 5 5 24 10 77 100 60 94 100 100 100 100 100 100 99 99 100 100 100
100 100 100 100 100 100 81 100 98 74 5 59 100 100 100 97 50 61 81 64 87 94 43 5 0 3 3 0 1 9 36 91 100 100 100 100 100 100 100 99 100 100 100
100 100 100 100 100 96 76 51 25 43 32 72 44 70 100 65 59 99 100 100 100 100 84 2 1 0 0 0 0 2 5 5 82 100 100 100 100 100 100 100 100 100 100
100 100 100 100 99 68 55 95 99 82 60 11 92 100 96 90 100 100 100 100 100 100 10 5 5 5 5 5 5 4 5 5 5 74 100 100 100 100 100 100 100 100 100
100 100 100 100 100 78 59 61 98 100 100 83 41 7 29 82 97 100 100 100 66 16 5 5 5 5 5 5 11 5 5 5 5 5 93 100 100 100 100 100 100 100 100
100 100 100 100 100 86 95 76 72 90 49 10 0 4 5 17 65 100 100 75 5 5 5 5 5 5 5 5 54 69 58 17 34 52 63 97 100 100 100 100 100 100 100
100 100 100 100 100 100 98 47 5 5 2 1 0 0 0 5 79 91 6 5 5 5 5 11 5 46 74 56 68 85 88 99 95 100 100 100 100 100 100 100 100 100 100
100 100 100 100 80 16 5 5 5 5 4 5 5 0 5 56 100 18 5 5 5 5 5 26 32 69 88 82 78 81 100 99 99 100 100 100 100 100 100 100 100 100 100
99 60 29 16 38 5 5 5 5 5 5 5 5 3 83 100 88 5 5 5 5 5 5 60 62 68 88 77 62 96 100 100 100 100 100 100 100 100 100 100 100 100 100
20 14 5 5 5 5 5 5 5 5 5 5 5 5 26 5 5 5 5 5 5 5 5 70 90 67 69 76 74 100 100 100 99 100 100 100 100 100 100 100 100 100 100
75 78 23 5 5 5 5 5 5 5 5 5 5 5 5 5 5 5 5 5 5 5 5 5 54 39 5 5 7 88 100 100 99 100 100 100 100 100 100 100 100 100 100
16 12 5 5 5 5 5 5 5 5 5 5 5 5 5 5 5 5 5 5 5 5 5 19 5 5 5 5 5 5 12 7 80 100 100 100 100 100 100 100 100 100 100
5 5 5 5 5 5 5 5 5 5 5 5 5 5 5 5 5 5 5 5 5 5 5 5 5 5 5 5 5 5 5 10 98 100 100 100 100 100 100 100 100 100 100
5 49 78 70 29 5 5 5 5 5 5 5 5 5 5 5 5 5 5 5 5 5 5 5 5 5 5 5 5 24 69 100 100 100 100 100 100 100 100 100 100 100 100

GFSGL_prec_cloud_168.txt.gz
Cloud_Cover
5 5 5 11 58 59 28 9 37 30 7 5 5 5 5 5 8 5 5 5 5 5 7 5 4 1 4 11 9 51 94 71 92 22 6 77 51 93 100 100 100 100 100
7 32 61 86 39 5 6 6 6 5 5 5 25 5 5 5 15 15 5 5 5 5 5 5 5 5 5 3 5 39 96 26 93 100 88 88 94 100 100 100 100 100 99
53 51 5 5 6 29 5 5 5 6 12 16 18 5 5 16 45 34 22 11 5 5 50 63 8 5 5 5 5 5 62 58 6 30 20 59 94 100 100 100 100 100 100
19 26 5 5 5 6 20 7 5 5 5 5 5 39 13 7 45 6 5 58 84 26 5 5 3 4 5 5 5 23 5 15 44 100 72 100 52 100 100 99 100 100 100
9 12 43 40 20 5 25 5 9 30 5 5 5 5 5 5 25 94 63 5 3 4 0 0 0 2 5 5 44 44 7 7 9 21 7 5 100 100 100 100 100 100 100
5 7 54 99 84 11 5 5 5 5 15 65 7 6 81 40 42 76 39 5 5 5 5 5 5 5 5 45 59 78 79 75 96 98 86 78 14 96 100 100 100 87 100
32 8 12 35 17 19 53 67 96 82 98 58 26 5 5 5 90 82 78 5 5 5 5 5 5 5 5 5 59 49 5 10 41 89 88 100 100 98 77 52 100 86 100
100 98 100 100 86 63 57 51 35 13 16 6 4 5 5 6 86 92 86 5 5 5 5 5 5 5 5 82 61 5 34 5 5 10 40 32 69 94 100 100 100 100 100
72 57 99 87 34 11 78 79 34 6 2 5 5 5 5 5 48 63 35 5 5 5 5 5 5 5 5 49 5 42 73 5 28 75 50 12 22 39 5 56 100 100 100
70 98 100 100 100 25 22 5 5 1 5 5 5 5 5 5 5 24 70 7 37 80 92 66 46 5 50 54 5 21 77 60 74 54 8 5 5 5 55 12 6 100 99
100 92 100 100 88 5 5 5 12 5 21 40 92 97 94 93 20 39 83 20 69 66 6 43 5 9 97 78 5 5 31 12 33 9 79 70 40 5 8 86 95 100 100
100 90 100 100 99 92 91 83 99 97 100 100 100 100 100 100 90 91 100 68 94 98 100 59 73 99 100 100 100 95 43 5 5 5 5 58 81 86 58 88 94 100 95
100 100 100 100 100 100 100 100 100 100 100 100 100 67 98 100 100 100 97 98 99 80 66 96 93 43 48 99 94 7 0 5 5 5 5 5 6 98 83 93 32 73 93
100 100 100 100 100 100 78 96 100 98 100 96 80 65 51 87 61 47 35 23 91 23 92 75 5 3 0 0 1 0 0 0 5 5 5 5 5 8 83 100 100 92 100
100 100 100 100 100 100 100 100 93 94 71 73 72 51 12 25 18 96 100 100 100 98 100 5 1 3 0 2 0 0 4 5 5 5 5 5 5 5 50 98 100 100 100
100 100 100 100 100 100 100 100 100 100 94 77 76 62 83 96 100 100 100 100 100 100 29 5 5 5 5 5 5 5 5 5 5 25 5 5 22 95 94 100 100 100 100
100 100 100 100 100 100 100 98 98 69 97 93 62 24 36 97 100 100 100 100 100 11 6 5 5 5 5 5 5 5 5 5 5 59 60 74 72 100 100 100 100 100 100
100 100 100 100 100 100 100 100 100 100 100 100 81 76 58 8 72 98 100 44 11 4 5 5 5 5 5 6 20 8 5 5 5 88 72 73 82 100 100 100 100 100 100
100 100 100 100 100 100 100 100 100 99 100 100 100 100 79 16 15 97 74 5 16 5 5 6 5 5 5 18 52 50 5 20 40 82 86 90 90 100 100 100 100 100 100
100 100 100 100 100 100 100 100 100 100 76 63 36 15 5 6 52 59 8 5 5 5 5 5 5 5 5 5 44 64 60 5 25 76 75 100 100 100 100 100 100 100 100
100 100 100 100 100 98 79 5 5 5 5 5 5 4 36 100 94 22 5 5 5 5 5 5 5 5 5 6 52 73 67 58 55 68 88 100 100 100 100 100 100 100 100
90 59 28 5 5 5 5 5 5 5 5 5 5 27 8 5 5 5 5 5 5 5 5 5 5 5 5 22 50 72 99 68 32 64 99 100 100 100 100 100 100 100 100
6 6 7 5 5 5 5 5 5 5 5 5 5 5 5 5 5 5 5 5 5 5 5 5 5 5 5 5 5 23 78 46 5 76 100 100 100 100 100 100 100 100 100
56 56 5 5 5 7 5 5 5 5 5 5 5 5 5 5 5 5 5 5 5 5 5 5 5 5 5 5 5 5 5 5 8 77 100 100 100 100 100 100 100 100 100
5 5 18 5 32 5 5 5 5 5 9 15 5 5 5 5 5 5 5 5 5 5 5 5 5 5 5 5 5 5 5 7 5 82 100 100 100 100 100 100 100 100 100
5 5 5 18 43 25 5 15 42 48 16 5 5 5 5 5 5 5 5 5 5 5 5 5 5 5 5 5 5 24 58 100 100 100 100 100 100 100 100 100 100 100 100

GFSGL_prec_cloud_171.txt.gz
Cloud_Cover
5 13 82 100 100 60 46 26 7 5 5 10 5 5 21 22 5 5 5 5 5 5 5 5 5 5 5 5 5 4 5 17 93 2 4 4 2 3 2 0 0 24 4
5 5 6 23 63 52 67 99 100 100 85 66 64 10 5 5 5 5 5 13 5 5 5 5 5 5 5 5 5 5 5 5 6 6 5 5 5 5 4 2 4 1 0
94 57 11 5 22 34 24 39 55 48 6 6 21 5 7 5 5 5 5 5 5 5 5 0 3 4 6 5 12 5 6 5 5 5 5 5 5 5 5 5 4 3 2
8 5 5 5 16 66 59 34 20 24 12 5 5 5 5 5 5 5 5 5 7 29 5 5 4 5 5 12 5 9 6 7 5 7 5 5 5 5 5 5 5 5 5
47 51 86 82 49 39 42 37 6 5 5 5 5 34 47 54 25 53 54 62 5 5 5 5 1 5 5 58 78 78 52 57 79 93 90 81 5 61 78 49 77 56 5
87 86 100 100 99 71 49 91 24 41 36 27 29 18 28 100 80 74 9 5 5 5 5 5 5 5 5 5 68 63 24 36 86 79 99 91 54 8 75 83 98 92 55
79 33 8 12 16 7 12 73 69 56 78 100 100 91 52 35 82 84 7 5 5 5 5 5 5 5 4 5 5 5 5 5 10 45 98 99 98 99 98 100 100 94 88
64 23 31 19 55 93 93 90 100 72 66 91 81 82 41 27 71 69 8 5 5 3 4 5 5 5 5 12 5 5 28 95 85 92 86 91 15 24 82 97 100 98 63
100 100 99 98 70 59 76 88 91 94 76 97 66 26 4 5 5 10 44 5 5 5 14 35 23 56 55 77 5 5 5 16 49 65 31 5 4 5 25 39 62 100 73
65 74 95 66 72 99 100 100 100 79 69 5 7 57 28 42 30 89 76 99 100 100 98 98 99 100 100 100 88 32 8 5 5 5 14 32 9 9 17 83 100 100 100
89 53 46 52 100 100 100 100 86 99 99 100 94 84 94 100 100 100 100 100 80 94 100 97 98 100 98 60 49 47 52 7 38 59 6 12 11 62 95 93 77 63 100
97 100 88 97 100 100 100 100 100 100 100 100 100 100 100 100 100 100 100 77 93 65 100 77 100 100 47 5 5 5 5 2 0 5 5 4 0 0 3 5 5 5 21
16 96 100 100 100 100 100 100 100 100 100 100 87 100 100 100 100 100 98 100 96 99 100 100 100 60 8 3 3 5 0 2 3 5 5 5 0 4 3 1 1 5 5
79 94 100 97 100 100 100 100 100 100 100 100 100 98 100 100 100 100 97 100 100 88 100 53 10 3 0 0 0 0 0 0 5 5 5 5 5 5 5 5 5 7 98
100 100 100 100 100 100 100 100 100 100 100 100 100 100 100 100 100 100 100 99 100 100 95 5 5 1 0 0 2 3 1 0 5 5 5 5 5 5 5 5 10 95 100
100 100 100 100 100 100 100 100 100 100 100 100 100 100 100 100 100 100 100 100 100 100 15 5 5 5 5 5 5 5 5 4 5 5 5 5 5 5 22 26 72 100 100
100 100 100 100 100 100 100 100 100 100 100 100 100 100 100 100 100 100 100 100 85 28 5 5 5 5 5 5 5 5 5 5 5 5 5 5 5 16 91 100 100 100 100
100 100 100 100 100 100 100 100 100 100 100 100 100 73 90 100 90 100 100 93 5 12 5 5 5 5 5 5 5 5 5 5 5 5 5 5 27 84 100 100 100 100 100
100 100 100 100 100 100 100 100 100 100 100 100 100 100 84 57 68 98 99 22 5 5 5 6 5 5 5 5 5 5 5 17 5 5 5 14 24 93 100 100 100 100 100
100 100 100 100 100 100 100 100 100 100 100 100 100 96 20 5 8 12 40 5 9 5 5 5 5 5 5 5 5 5 38 6 5 5 5 5 33 91 100 100 100 100 100
100 100 100 100 100 100 100 100 100 96 42 5 5 15 46 100 100 73 5 5 5 5 5 5 5 5 5 5 5 11 34 19 5 5 5 5 57 100 100 100 100 100 100
100 100 100 96 88 74 56 27 41 41 8 5 5 31 13 34 5 5 5 5 5 5 5 5 5 5 5 5 5 7 60 65 15 5 5 16 92 100 100 100 100 100 100
74 54 60 48 40 34 56 43 25 5 5 5 5 5 5 5 5 5 5 5 5 5 5 5 5 5 5 5 5 5 59 44 5 32 80 94 100 100 100 100 100 100 100
70 49 54 38 57 28 36 5 5 5 5 5 5 5 5 5 5 5 5 5 5 5 5 5 5 5 5 5 5 5 5 5 5 33 92 100 100 100 100 100 100 100 100
96 97 82 42 31 14 11 5 5 5 5 5 5 5 5 9 6 5 5 5 5 5 5 5 5 5 5 5 5 5 5 7 16 14 98 100 100 100 100 100 100 100 100
18 23 21 23 5 12 52 34 5 5 5 5 5 5 5 5 5 5 5 5 5 5 5 5 5 5 5 5 5 24 20 98 100 100 100 100 100 100 100 100 100 100 100